Location: Decatur(IL)
(39.8400°N, 88.9550°W)
Time: 12:57:28
(UTC-05:00)

Cosmos 1953 - Visible Passes

Search period start: 28 April 2017 00:00
Search period end: 08 May 2017 00:00
Orbit: 540 x 561 km, 82.5° (Epoch: 26 April)

Date Brightness Start Highest point End Pass type
(mag) Time Alt. Az. Time Alt. Az. Time Alt. Az.
28 Apr 4.0 02:51:00 10° NNE 02:54:07 30° ENE 02:54:07 30° ENE visible
28 Apr 4.2 04:28:09 10° NW 04:29:50 16° WNW 04:29:50 16° WNW visible
29 Apr 4.0 02:46:51 10° N 02:49:46 31° NE 02:49:46 31° NE visible
29 Apr 4.4 04:24:16 10° NW 04:25:29 14° WNW 04:25:29 14° WNW visible
30 Apr 4.0 02:42:43 10° N 02:45:27 32° NE 02:45:27 32° NE visible
30 Apr 4.5 04:20:27 10° NW 04:21:10 12° WNW 04:21:10 12° WNW visible
01 May 4.0 02:38:35 10° N 02:41:09 32° NE 02:41:09 32° NE visible
01 May 4.7 04:16:40 10° WNW 04:16:52 11° WNW 04:16:52 11° WNW visible
02 May 4.1 02:34:28 10° N 02:36:53 31° NNE 02:36:53 31° NNE visible
03 May 4.1 02:30:20 10° N 02:32:38 31° NNE 02:32:38 31° NNE visible
04 May 4.2 02:26:13 10° N 02:28:23 30° NNE 02:28:23 30° NNE visible
05 May 4.2 02:22:06 10° N 02:24:11 29° N 02:24:11 29° N visible
06 May 4.2 02:18:00 10° N 02:19:58 28° N 02:19:58 28° N visible
07 May 4.3 02:13:54 10° N 02:15:48 27° N 02:15:48 27° N visible
